Battle Creek, MI

1:06 AM EST on December 11, 2017 (GMT -0500)
Kellogg

Weather History for KBTL - January, 2014

Change the Weather History Date:

Thursday, January 9, 2014

  Actual Average Record
Temperature  
Mean Temperature 16 °F 24 °F  
Max Temperature 24 °F 32 °F 47 °F (2013)
Min Temperature 7 °F 16 °F -2 °F (2001)
Degree Days  
Heating Degree Days 49 41  
Month to date heating degree days 498 369  
Since 1 July heating degree days 3112 2969  
Cooling Degree Days 0 0  
Month to date cooling degree days 0 0  
Year to date cooling degree days 0 0  
Moisture  
Dew Point 11 °F    
Average Humidity 73    
Maximum Humidity 84    
Minimum Humidity 62    
Precipitation  
Precipitation 0.00 in 0.06 in 0.47 in (2016)
Month to date precipitation 0.24 0.59  
Year to date precipitation 0.24 0.59  
Sea Level Pressure  
Sea Level Pressure 30.41 in    
Wind  
Wind Speed 7 mph (SE)    
Max Wind Speed 13 mph    
Max Gust Speed 16 mph    
Visibility 6 miles    
Events Snow    
T = Trace of Precipitation, MM = Missing Value Source: NWS Daily Summary

Daily Weather History Graph

Daily Weather History Graph

Search for Another Location

Airport or City:

Trip Planner

Search our weather history database for the weather conditions in past years. The results will help you decide how hot, cold, wet, or windy it might be!

Date:

Astronomy

Jan. 09, 2014 Rise Set
Actual Time 8:09 AM EST 5:27 PM EST
Civil Twilight 7:38 AM EST 5:58 PM EST
Nautical Twilight 7:03 AM EST 6:33 PM EST
Astronomical Twilight 6:29 AM EST 7:07 PM EST
Moon 12:56 PM EST (1/9) 2:13 AM EST (1/9)
Length of Visible Light 10h 20m
Length of Day
9h 17m
Waxing Gibbous, 66% of the Moon is Illuminated
Jan 9
Waxing Gibbous
Jan 15
Full
Jan 24
Last Quarter
Jan 30
New
Feb 6
First Quarter

Hourly Weather History & Observations

Time (EST) Temp. Windchill Dew Point Humidity Pressure Visibility Wind Dir Wind Speed Gust Speed Precip Events Conditions
12:53 AM 12.0 °F 5.9 °F 6.1 °F 77% 30.53 in 10.0 mi NNW 3.5 mph - N/A   Overcast
1:53 AM 9.0 °F - 3.9 °F 80% 30.54 in 10.0 mi Calm Calm - N/A   Overcast
2:53 AM 8.1 °F 1.4 °F 3.9 °F 83% 30.57 in 10.0 mi South 3.5 mph - N/A   Overcast
3:53 AM 10.0 °F - 6.1 °F 84% 30.57 in 10.0 mi Calm Calm - N/A   Overcast
4:53 AM 10.9 °F 2.9 °F 5.0 °F 77% 30.56 in 10.0 mi SE 4.6 mph - N/A   Overcast
5:53 AM 10.9 °F 4.7 °F 6.1 °F 81% 30.56 in 10.0 mi SSE 3.5 mph - N/A   Overcast
6:53 AM 10.0 °F 1.8 °F 5.0 °F 80% 30.56 in 10.0 mi ESE 4.6 mph - N/A   Overcast
7:01 AM 10.0 °F 1.8 °F 5.0 °F 80% 30.49 in 10.0 mi SSE 4.6 mph - N/A   Overcast
7:53 AM 9.0 °F -0.9 °F 5.0 °F 84% 30.56 in 10.0 mi SE 5.8 mph - N/A   Overcast
8:53 AM 8.1 °F -4.3 °F 5.0 °F 87% 30.58 in 6.0 mi SE 8.1 mph - N/A   Overcast
9:53 AM 8.1 °F -4.3 °F 5.0 °F 87% 30.58 in 6.0 mi SE 8.1 mph - N/A   Overcast
10:40 AM 9.0 °F -2.2 °F 3.9 °F 80% 30.51 in 9.0 mi SE 6.9 mph - N/A   Partly Cloudy
10:53 AM 10.0 °F -0.9 °F 5.0 °F 80% 30.57 in 10.0 mi ESE 6.9 mph - N/A   Partly Cloudy
11:53 AM 12.9 °F 0.7 °F 6.1 °F 74% 30.52 in 10.0 mi SE 9.2 mph - N/A   Clear
12:53 PM 15.1 °F 6.4 °F 7.0 °F 70% 30.48 in 10.0 mi SSE 5.8 mph - N/A   Clear
1:24 PM 16.0 °F 7.4 °F 8.1 °F 71% 30.39 in 5.0 mi SE 5.8 mph - N/A   Haze
1:53 PM 17.1 °F 6.6 °F 8.1 °F 68% 30.44 in 10.0 mi SE 8.1 mph - N/A   Overcast
2:53 PM 19.0 °F 10.0 °F 9.0 °F 65% 30.43 in 10.0 mi SSE 6.9 mph - N/A   Overcast
3:51 PM 19.4 °F 11.5 °F 10.4 °F 68% 30.36 in 5.0 mi SE 5.8 mph - N/A Snow Light Snow
3:53 PM 19.0 °F 11.1 °F 10.9 °F 71% 30.42 in 5.0 mi SE 5.8 mph - N/A Snow Light Snow
4:53 PM 19.9 °F 12.1 °F 12.9 °F 74% 30.41 in 6.0 mi SSE 5.8 mph - N/A Snow Light Snow
6:28 PM 19.0 °F 9.0 °F 14.0 °F 81% 30.33 in 2.0 mi SE 8.1 mph - N/A Snow Light Snow
6:36 PM 19.0 °F 11.1 °F 14.0 °F 81% 30.33 in 1.5 mi SE 5.8 mph - N/A Snow Light Snow
6:53 PM 19.0 °F 9.0 °F 15.1 °F 85% 30.38 in 2.0 mi SE 8.1 mph - N/A Snow Light Snow
7:07 PM 19.0 °F 8.2 °F 15.1 °F 85% 30.31 in 3.0 mi SE 9.2 mph - N/A Snow Light Snow
7:26 PM 19.9 °F 10.1 °F 15.1 °F 81% 30.31 in 2.5 mi SE 8.1 mph - N/A Snow Light Snow
7:33 PM 19.9 °F 11.1 °F 15.1 °F 81% 30.31 in 3.0 mi SE 6.9 mph - N/A Snow Light Snow
7:48 PM 19.4 °F 10.4 °F 15.8 °F 86% 30.31 in 6.0 mi SSE 6.9 mph - N/A   Haze
7:53 PM 19.9 °F 9.3 °F 15.1 °F 81% 30.36 in 6.0 mi SSE 9.2 mph - N/A   Haze
8:53 PM 21.0 °F 11.4 °F 16.0 °F 81% 30.34 in 6.0 mi SSE 8.1 mph - N/A   Haze
9:06 PM 21.0 °F 12.4 °F 16.0 °F 81% 30.28 in 2.5 mi SSE 6.9 mph - N/A Snow Light Snow
9:15 PM 21.0 °F 12.4 °F 17.1 °F 85% 30.28 in 2.5 mi SSE 6.9 mph - N/A Snow Light Snow
9:33 PM 21.0 °F 9.9 °F 17.1 °F 85% 30.27 in 3.0 mi SSE 10.4 mph - N/A Snow Light Snow
9:53 PM 21.9 °F 10.4 °F 17.1 °F 82% 30.32 in 2.0 mi SSE 11.5 mph - N/A Snow Light Snow
10:33 PM 21.9 °F 9.8 °F 18.0 °F 85% 30.25 in 3.0 mi SSE 12.7 mph - N/A Snow Light Snow
10:53 PM 23.0 °F 11.7 °F 18.0 °F 81% 30.30 in 6.0 mi SSE 11.5 mph - N/A   Haze
11:16 PM 23.0 °F 12.4 °F 19.0 °F 85% 30.24 in 5.0 mi SSE 10.4 mph - N/A   Overcast
11:45 PM 24.1 °F 15.2 °F 19.0 °F 81% 30.22 in 5.0 mi South 8.1 mph - N/A   Haze
11:53 PM 24.1 °F 15.2 °F 19.9 °F 84% 30.27 in 5.0 mi South 8.1 mph - N/A   Overcast